User: anonymous   Login
Location: Bletchingley
(51.2333°N, 0.1000°W)
Time: 16:22:47
(UTC+00:00)
Language:

Cosmos 1842 - Orbit

View from above orbital plane
View from above orbital plane
View from above satellite
View from above satellite

Ground track
Ground track

The orbit data is extracted from the following two-line orbital elements,

1 17911U 87038A   21173.90981459  .00000063  00000-0  18153-5 0  9996
2 17911  82.5215 197.7329 0009968 224.5905 135.4524 15.12661181863138
Epoch (UTC): 22 June 2021 21:50:07
Eccentricity: 0.0009968
inclination: 82.5215°
perigee height: 521 km
apogee height: 535 km
right ascension of ascending node: 197.7329°
argument of perigee: 224.5905°
revolutions per day: 15.12661181
mean anomaly at epoch: 135.4524°
orbit number at epoch: 86313

The dashed part of the orbit path shows where the satellite is in the earth's shadow,  

DLR